Simultaneous Nadir Overpasses (SNOs) Predictions

Prediction of SNOs between NPP and TERRA Satellite Orbit:

Table of predicted SNOs for the next 14.0 days since TLE Epoch: 6/12/2016
Index Date (NPP) Time (NPP) Lat,Lon (NPP) SZA (NPP ) Date (TERRA) Time (TERRA) Lat,Lon (TERRA) SZA (TERRA ) Distance(km) Time Diff (sec)
1 06/14/2016 02:57:10 -68.45, -45.53 134.94 06/14/2016 02:57:45 -68.44, -45.53 134.95 1.09 35
2 06/14/2016 03:47:54 68.31, 121.96 44.92 06/14/2016 03:47:12 68.32, 121.98 44.94 2.36 42
3 06/16/2016 18:23:30 68.91, -97.69 45.44 06/16/2016 18:24:40 68.80, -96.83 45.32 36.34 70
4 06/16/2016 19:14:04 -68.41, 70.30 135.08 06/16/2016 19:14:15 -68.42, 70.33 135.07 2.06 11
5 06/16/2016 20:04:48 68.27,-122.22 44.78 06/16/2016 20:03:43 68.25,-122.23 44.77 2.25 65
6 06/19/2016 10:40:16 68.50, 18.63 44.97 06/19/2016 10:41:14 68.50, 18.67 44.96 1.64 58
7 06/19/2016 11:30:57 -68.37,-173.88 135.17 06/19/2016 11:30:45 -68.34,-173.89 135.20 3.07 12
8 06/19/2016 12:21:31 67.70, -5.73 44.15 06/19/2016 12:20:21 67.72, -6.97 44.19 52.35 70
9 06/22/2016 02:57:10 68.47, 134.44 44.94 06/22/2016 02:57:44 68.46, 134.50 44.93 2.68 34
10 06/22/2016 03:47:51 -68.33, -58.07 135.20 06/22/2016 03:47:15 -68.31, -58.05 135.23 2.76 36
11 06/24/2016 18:23:30 -69.09, 82.06 134.38 06/24/2016 18:24:39 -68.98, 83.39 134.51 54.13 69
12 06/24/2016 19:14:03 68.39,-109.68 44.90 06/24/2016 19:14:15 68.36,-109.74 44.88 3.47 12
13 06/24/2016 20:04:44 -68.24, 57.81
